| time (UTC) | temp F | wind direction | speed MPH | gust MPH | rain 1hr in | rain 24hr in | rain mn in | humidity % | barometer mb |
| 20260509183314 | 65 | 48 | 0.0 | 2.0 | 0.00 | 0.00 | 0.00 | 56 | 1016.2 |
| 20260509182315 | 67 | 49 | 2.0 | 2.0 | 0.00 | 0.00 | 0.00 | 51 | 1015.9 |
| 20260509181315 | 67 | 19 | 1.0 | 6.0 | 0.00 | 0.00 | 0.00 | 50 | 1015.9 |
| 20260509180815 | 68 | 34 | 1.0 | 5.0 | 0.00 | 0.00 | 0.00 | 49 | 1015.8 |
| 20260509173314 | 69 | 34 | 3.0 | 5.0 | 0.00 | 0.00 | 0.00 | 48 | 1015.5 |
| 20260509172815 | 69 | 36 | 3.0 | 7.0 | 0.00 | 0.00 | 0.00 | 48 | 1015.5 |
| 20260509172315 | 69 | 77 | 6.0 | 7.0 | 0.00 | 0.00 | 0.00 | 49 | 1015.4 |
| 20260509171815 | 69 | 332 | 6.0 | 10.0 | 0.00 | 0.00 | 0.00 | 47 | 1015.4 |
| 20260509170815 | 69 | 5 | 2.0 | 18.0 | 0.00 | 0.00 | 0.00 | 46 | 1015.4 |
| 20260509170316 | 69 | 326 | 2.0 | 6.0 | 0.00 | 0.00 | 0.00 | 48 | 1015.4 |
| 20260509164316 | 69 | 350 | 7.0 | 6.0 | 0.00 | 0.00 | 0.00 | 47 | 1015.5 |
| 20260509161815 | 70 | 36 | 3.0 | 8.0 | 0.00 | 0.00 | 0.00 | 47 | 1015.7 |
| 20260509155315 | 69 | 4 | 12.0 | 8.0 | 0.00 | 0.00 | 0.00 | 47 | 1015.9 |
| 20260509154815 | 70 | 28 | 12.0 | 15.0 | 0.00 | 0.00 | 0.00 | 45 | 1015.9 |
| 20260509154316 | 70 | 19 | 2.0 | 15.0 | 0.00 | 0.00 | 0.00 | 45 | 1015.9 |
| 20260509153819 | 70 | 90 | 4.0 | 13.0 | 0.00 | 0.00 | 0.00 | 46 | 1015.9 |
| 20260509153318 | 70 | 180 | 0.0 | 8.0 | 0.00 | 0.00 | 0.00 | 46 | 1015.9 |
| 20260509152315 | 70 | 164 | 1.0 | 22.0 | 0.00 | 0.00 | 0.00 | 46 | 1016.1 |
| 20260509151815 | 70 | 180 | 0.0 | 22.0 | 0.00 | 0.00 | 0.00 | 45 | 1016.1 |
| 20260509151315 | 70 | 176 | 1.0 | 10.0 | 0.00 | 0.00 | 0.00 | 45 | 1016.1 |
| 20260509150815 | 70 | 28 | 1.0 | 13.0 | 0.00 | 0.00 | 0.00 | 44 | 1016.0 |
| 20260509150314 | 70 | 64 | 1.0 | 22.0 | 0.00 | 0.00 | 0.00 | 46 | 1016.0 |
| 20260509145815 | 70 | 358 | 2.0 | 9.0 | 0.00 | 0.00 | 0.00 | 45 | 1016.0 |
| 20260509145315 | 70 | 1 | 2.0 | 17.0 | 0.00 | 0.00 | 0.00 | 46 | 1016.2 |
| 20260509143314 | 69 | 56 | 1.0 | 17.0 | 0.00 | 0.00 | 0.00 | 49 | 1016.4 |
| 20260509141815 | 69 | 180 | 0.0 | 18.0 | 0.00 | 0.00 | 0.00 | 46 | 1016.5 |
| 20260509141315 | 69 | 324 | 3.0 | 20.0 | 0.00 | 0.00 | 0.00 | 46 | 1016.5 |
| 20260509140815 | 69 | 180 | 0.0 | 30.0 | 0.00 | 0.00 | 0.00 | 46 | 1016.5 |
| 20260509140315 | 70 | 141 | 2.0 | 17.0 | 0.00 | 0.00 | 0.00 | 45 | 1016.5 |
| 20260509134815 | 70 | 345 | 11.0 | 29.0 | 0.00 | 0.00 | 0.00 | 45 | 1016.7 |
| 20260509134315 | 70 | 189 | 0.0 | 18.0 | 0.00 | 0.00 | 0.00 | 45 | 1016.7 |
| 20260509132816 | 69 | 176 | 0.0 | 8.0 | 0.00 | 0.00 | 0.00 | 48 | 1016.9 |
| 20260509132315 | 69 | 181 | 1.0 | 10.0 | 0.00 | 0.00 | 0.00 | 46 | 1017.0 |
| 20260509131315 | 69 | 253 | 1.0 | 10.0 | 0.00 | 0.00 | 0.00 | 46 | 1017.0 |
| 20260509130314 | 69 | 182 | 0.0 | 23.0 | 0.00 | 0.00 | 0.00 | 47 | 1017.1 |
| 20260509125815 | 69 | 180 | 0.0 | 17.0 | 0.00 | 0.00 | 0.00 | 46 | 1017.1 |
| 20260509125315 | 69 | 180 | 0.0 | 15.0 | 0.00 | 0.00 | 0.00 | 47 | 1017.3 |
| 20260509124815 | 68 | 175 | 0.0 | 15.0 | 0.00 | 0.00 | 0.00 | 48 | 1017.3 |
| 20260509124315 | 68 | 180 | 0.0 | 0.0 | 0.00 | 0.00 | 0.00 | 48 | 1017.3 |
| 20260509123315 | 68 | 180 | 0.0 | 15.0 | 0.00 | 0.00 | 0.00 | 46 | 1017.3 |
| 20260509122314 | 68 | 25 | 3.0 | 7.0 | 0.00 | 0.00 | 0.00 | 47 | 1017.6 |
| 20260509121816 | 68 | 92 | 3.0 | 6.0 | 0.00 | 0.00 | 0.00 | 47 | 1017.6 |
| 20260509120315 | 68 | 94 | 3.0 | 7.0 | 0.00 | 0.00 | 0.00 | 48 | 1017.6 |
| 20260509115815 | 67 | 11 | 3.0 | 9.0 | 0.00 | 0.00 | 0.00 | 48 | 1017.6 |
| 20260509114815 | 67 | 31 | 3.0 | 7.0 | 0.00 | 0.00 | 0.00 | 48 | 1017.7 |
| 20260509114315 | 67 | 34 | 3.0 | 7.0 | 0.00 | 0.00 | 0.00 | 47 | 1017.7 |
| 20260509113815 | 67 | 322 | 3.0 | 10.0 | 0.00 | 0.00 | 0.00 | 47 | 1017.8 |
| 20260509113314 | 67 | 22 | 2.0 | 8.0 | 0.00 | 0.00 | 0.00 | 47 | 1017.8 |
| 20260509112815 | 67 | 69 | 3.0 | 7.0 | 0.00 | 0.00 | 0.00 | 48 | 1017.8 |
| 20260509112316 | 66 | 302 | 3.0 | 7.0 | 0.00 | 0.00 | 0.00 | 47 | 1018.0 |
| 20260509110314 | 66 | 54 | 2.0 | 10.0 | 0.00 | 0.00 | 0.00 | 46 | 1018.2 |
| 20260509105815 | 66 | 74 | 5.0 | 6.0 | 0.00 | 0.00 | 0.00 | 48 | 1018.2 |
| 20260509104816 | 66 | 312 | 3.0 | 12.0 | 0.00 | 0.00 | 0.00 | 46 | 1018.4 |
| 20260509103314 | 65 | 327 | 3.0 | 8.0 | 0.00 | 0.00 | 0.00 | 47 | 1018.5 |
| 20260509101315 | 65 | 328 | 5.0 | 8.0 | 0.00 | 0.00 | 0.00 | 46 | 1018.6 |
| 20260509100315 | 65 | 53 | 3.0 | 10.0 | 0.00 | 0.00 | 0.00 | 47 | 1018.6 |
| 20260509095318 | 64 | 350 | 3.0 | 10.0 | 0.00 | 0.00 | 0.00 | 48 | 1018.6 |
| 20260509094815 | 64 | 5 | 3.0 | 7.0 | 0.00 | 0.00 | 0.00 | 47 | 1018.6 |
| 20260509094315 | 64 | 336 | 2.0 | 9.0 | 0.00 | 0.00 | 0.00 | 47 | 1018.6 |
| 20260509092816 | 64 | 46 | 2.0 | 7.0 | 0.00 | 0.00 | 0.00 | 51 | 1018.6 |
| 20260509092316 | 63 | 4 | 2.0 | 7.0 | 0.00 | 0.00 | 0.00 | 51 | 1018.7 |
| 20260509091817 | 63 | 57 | 3.0 | 5.0 | 0.00 | 0.00 | 0.00 | 53 | 1018.7 |
| 20260509090315 | 63 | 18 | 2.0 | 7.0 | 0.00 | 0.00 | 0.00 | 54 | 1018.7 |
| 20260509081814 | 60 | 343 | 2.0 | 7.0 | 0.00 | 0.00 | 0.00 | 58 | 1019.0 |
| 20260509081315 | 60 | 19 | 2.0 | 6.0 | 0.00 | 0.00 | 0.00 | 58 | 1019.0 |
| 20260509080815 | 59 | 332 | 2.0 | 7.0 | 0.00 | 0.00 | 0.00 | 61 | 1019.0 |
| 20260509075815 | 58 | 41 | 1.0 | 5.0 | 0.00 | 0.00 | 0.00 | 66 | 1019.0 |
| 20260509075315 | 58 | 310 | 1.0 | 3.0 | 0.00 | 0.00 | 0.00 | 73 | 1019.1 |
| 20260509074815 | 57 | 309 | 0.0 | 5.0 | 0.00 | 0.00 | 0.00 | 75 | 1019.1 |
| 20260509074314 | 56 | 321 | 0.0 | 2.0 | 0.00 | 0.00 | 0.00 | 76 | 1019.1 |
| 20260509071814 | 54 | 279 | 0.0 | 5.0 | 0.00 | 0.00 | 0.00 | 83 | 1019.1 |
| 20260509071314 | 53 | 188 | 0.0 | 0.0 | 0.00 | 0.00 | 0.00 | 85 | 1019.1 |
| 20260509065315 | 52 | 184 | 0.0 | 0.0 | 0.00 | 0.00 | 0.00 | 89 | 1019.1 |
| 20260509064314 | 51 | 184 | 0.0 | 3.0 | 0.00 | 0.00 | 0.00 | 92 | 1019.1 |
| 20260509063814 | 50 | 127 | 0.0 | 0.0 | 0.00 | 0.00 | 0.00 | 95 | 1019.1 |
| 20260509055814 | 44 | 126 | 0.0 | 0.0 | 0.00 | 0.00 | 0.00 | 99 | 1019.0 |
| 20260509053315 | 40 | 126 | 0.0 | 2.0 | 0.00 | 0.00 | 0.00 | 98 | 1019.0 |
| 20260509052815 | 40 | 126 | 0.0 | 1.0 | 0.00 | 0.00 | 0.00 | 98 | 1019.0 |
| 20260509051314 | 39 | 126 | 0.0 | 0.0 | 0.00 | 0.00 | 0.00 | 97 | 1019.0 |
| 20260509050815 | 39 | 126 | 0.0 | 0.0 | 0.00 | 0.00 | 0.00 | 97 | 1018.9 |
| 20260509050314 | 39 | 126 | 0.0 | 1.0 | 0.00 | 0.00 | 0.00 | 97 | 1018.9 |
| 20260509045315 | 38 | 126 | 0.0 | 0.0 | 0.00 | 0.00 | 0.00 | 97 | 1018.8 |
| 20260509044314 | 38 | 126 | 0.0 | 0.0 | 0.00 | 0.00 | 0.00 | 97 | 1018.8 |
| 20260509043814 | 38 | 126 | 0.0 | 0.0 | 0.00 | 0.00 | 0.00 | 96 | 1018.8 |
| 20260509043314 | 38 | 126 | 0.0 | 0.0 | 0.00 | 0.00 | 0.00 | 96 | 1018.8 |
| 20260509042815 | 38 | 126 | 0.0 | 2.0 | 0.00 | 0.00 | 0.00 | 96 | 1018.8 |
| 20260509041814 | 38 | 126 | 0.0 | 0.0 | 0.00 | 0.00 | 0.00 | 96 | 1018.8 |
| 20260509040815 | 38 | 126 | 0.0 | 2.0 | 0.00 | 0.00 | 0.00 | 96 | 1018.7 |
| 20260509035814 | 38 | 126 | 0.0 | 1.0 | 0.00 | 0.00 | 0.00 | 95 | 1018.7 |
| 20260509035314 | 38 | 126 | 0.0 | 0.0 | 0.00 | 0.00 | 0.00 | 96 | 1018.8 |
| 20260509033314 | 38 | 126 | 0.0 | 2.0 | 0.00 | 0.00 | 0.00 | 96 | 1018.8 |
| 20260509032815 | 38 | 126 | 0.0 | 2.0 | 0.00 | 0.00 | 0.00 | 96 | 1018.8 |
| 20260509031814 | 38 | 126 | 0.0 | 2.0 | 0.00 | 0.00 | 0.00 | 95 | 1019.0 |
| 20260509031314 | 38 | 126 | 0.0 | 0.0 | 0.00 | 0.00 | 0.00 | 95 | 1019.0 |
| 20260509025314 | 38 | 126 | 0.0 | 0.0 | 0.00 | 0.00 | 0.00 | 95 | 1018.9 |
| 20260509023814 | 39 | 126 | 0.0 | 0.0 | 0.00 | 0.00 | 0.00 | 95 | 1019.0 |
| 20260509023314 | 39 | 126 | 0.0 | 0.0 | 0.00 | 0.00 | 0.00 | 94 | 1019.0 |
| 20260509022814 | 39 | 126 | 0.0 | 0.0 | 0.00 | 0.00 | 0.00 | 94 | 1019.0 |
| 20260509021813 | 39 | 126 | 0.0 | 0.0 | 0.00 | 0.00 | 0.00 | 94 | 1019.0 |
| 20260509021314 | 39 | 126 | 0.0 | 0.0 | 0.00 | 0.00 | 0.00 | 94 | 1019.0 |
| 20260509020814 | 39 | 126 | 0.0 | 0.0 | 0.00 | 0.00 | 0.00 | 94 | 1019.0 |
| 20260509013814 | 40 | 126 | 0.0 | 1.0 | 0.00 | 0.00 | 0.00 | 93 | 1019.1 |
| 20260509013314 | 40 | 126 | 0.0 | 1.0 | 0.00 | 0.00 | 0.00 | 93 | 1019.1 |
| 20260509012314 | 40 | 126 | 0.0 | 0.0 | 0.00 | 0.00 | 0.00 | 93 | 1019.2 |
| 20260509010314 | 41 | 126 | 0.0 | 1.0 | 0.00 | 0.00 | 0.00 | 93 | 1019.2 |
| 20260509005813 | 42 | 126 | 0.0 | 0.0 | 0.00 | 0.00 | 0.00 | 93 | 1019.2 |
| 20260509004815 | 42 | 126 | 0.0 | 0.0 | 0.00 | 0.00 | 0.00 | 93 | 1019.1 |
| 20260509004315 | 42 | 126 | 0.0 | 0.0 | 0.00 | 0.00 | 0.00 | 92 | 1019.1 |
| 20260509003814 | 43 | 126 | 0.0 | 0.0 | 0.00 | 0.00 | 0.00 | 92 | 1019.1 |
| 20260509003314 | 43 | 126 | 0.0 | 0.0 | 0.00 | 0.00 | 0.00 | 92 | 1019.1 |
| 20260509002814 | 43 | 126 | 0.0 | 0.0 | 0.00 | 0.00 | 0.00 | 92 | 1019.1 |
| 20260509002314 | 43 | 126 | 0.0 | 0.0 | 0.00 | 0.00 | 0.00 | 92 | 1019.1 |
| 20260509001314 | 44 | 126 | 0.0 | 0.0 | 0.00 | 0.00 | 0.00 | 92 | 1019.1 |
| 20260509000314 | 45 | 126 | 0.0 | 0.0 | 0.00 | 0.00 | 0.00 | 93 | 1019.2 |
| 20260508235814 | 45 | 126 | 0.0 | 0.0 | 0.00 | 0.00 | 0.00 | 93 | 1019.2 |
| 20260508234814 | 46 | 126 | 0.0 | 2.0 | 0.00 | 0.00 | 0.00 | 94 | 1019.3 |
| 20260508234313 | 46 | 126 | 0.0 | 2.0 | 0.00 | 0.00 | 0.00 | 94 | 1019.3 |
| 20260508232314 | 45 | 126 | 0.0 | 2.0 | 0.00 | 0.00 | 0.00 | 94 | 1019.5 |
| 20260508231815 | 45 | 126 | 0.0 | 0.0 | 0.00 | 0.00 | 0.00 | 95 | 1019.5 |
| 20260508230814 | 45 | 126 | 0.0 | 0.0 | 0.00 | 0.00 | 0.00 | 95 | 1019.4 |
| 20260508225814 | 44 | 126 | 0.0 | 0.0 | 0.00 | 0.00 | 0.00 | 95 | 1019.4 |
| 20260508225315 | 44 | 126 | 0.0 | 0.0 | 0.00 | 0.00 | 0.00 | 95 | 1019.5 |
| 20260508224814 | 44 | 126 | 0.0 | 0.0 | 0.00 | 0.00 | 0.00 | 94 | 1019.5 |
| 20260508223314 | 43 | 126 | 0.0 | 0.0 | 0.00 | 0.00 | 0.00 | 92 | 1019.4 |
| 20260508221314 | 44 | 126 | 0.0 | 0.0 | 0.00 | 0.00 | 0.00 | 90 | 1019.2 |
| 20260508215814 | 44 | 126 | 0.0 | 0.0 | 0.00 | 0.00 | 0.00 | 90 | 1019.1 |
| 20260508214314 | 45 | 126 | 0.0 | 0.0 | 0.00 | 0.00 | 0.00 | 90 | 1019.1 |
| 20260508213314 | 45 | 126 | 0.0 | 0.0 | 0.00 | 0.00 | 0.00 | 89 | 1019.3 |
| 20260508212315 | 46 | 126 | 0.0 | 0.0 | 0.00 | 0.00 | 0.00 | 88 | 1019.2 |
| 20260508211313 | 46 | 126 | 0.0 | 1.0 | 0.00 | 0.00 | 0.00 | 86 | 1019.2 |
| 20260508210814 | 47 | 126 | 0.0 | 0.0 | 0.00 | 0.00 | 0.00 | 87 | 1019.1 |
| 20260508205814 | 47 | 126 | 0.0 | 0.0 | 0.00 | 0.00 | 0.00 | 88 | 1019.1 |
| 20260508205314 | 48 | 126 | 0.0 | 0.0 | 0.00 | 0.00 | 0.00 | 87 | 1019.1 |
| 20260508204314 | 48 | 126 | 0.0 | 0.0 | 0.00 | 0.00 | 0.00 | 87 | 1019.1 |
| 20260508202814 | 48 | 126 | 0.0 | 0.0 | 0.00 | 0.00 | 0.00 | 86 | 1019.0 |
| 20260508202314 | 49 | 126 | 0.0 | 0.0 | 0.00 | 0.00 | 0.00 | 86 | 1019.0 |
| 20260508201314 | 49 | 126 | 0.0 | 0.0 | 0.00 | 0.00 | 0.00 | 84 | 1019.0 |
| 20260508195814 | 50 | 126 | 0.0 | 0.0 | 0.00 | 0.00 | 0.00 | 82 | 1018.9 |
| 20260508195314 | 50 | 126 | 0.0 | 0.0 | 0.00 | 0.00 | 0.00 | 81 | 1018.9 |
| 20260508193314 | 52 | 126 | 0.0 | 0.0 | 0.00 | 0.00 | 0.00 | 76 | 1018.7 |
| 20260508192814 | 53 | 126 | 0.0 | 0.0 | 0.00 | 0.00 | 0.00 | 75 | 1018.7 |
| 20260508191817 | 54 | 126 | 0.0 | 1.0 | 0.00 | 0.00 | 0.00 | 73 | 1018.4 |
| 20260508191314 | 55 | 126 | 0.0 | 1.0 | 0.00 | 0.00 | 0.00 | 72 | 1018.4 |
| 20260508185813 | 57 | 126 | 0.0 | 2.0 | 0.00 | 0.00 | 0.00 | 67 | 1018.2 |
| 20260508185314 | 58 | 126 | 0.0 | 3.0 | 0.00 | 0.00 | 0.00 | 64 | 1017.9 |
| 20260508184814 | 58 | 126 | 0.0 | 2.0 | 0.00 | 0.00 | 0.00 | 62 | 1017.9 |
| 20260508184314 | 59 | 136 | 0.0 | 2.0 | 0.00 | 0.00 | 0.00 | 62 | 1017.9 |